Snowfall_Accumulation
nan nan nan nan nan nan nan nan nan nan nan nan nan nan nan nan nan 0.0 0.0 0.0 0.0 1.5 1.1 0.0 0.0 0.3 0.3 0.2 1.7 1.4 2.2 1.7 1.3 3.0 6.1 6.4 4.0 0.9 0.5 0.0 0.0 2.4 5.4 8.9 7.4 8.8 7.6 0.0 0.0 0.0 0.1 0.0 0.0 0.0
nan nan nan nan nan nan nan nan nan nan nan nan nan nan nan nan nan nan 0.0 0.0 0.0 0.4 0.8 0.0 0.0 0.0 0.0 0.0 0.1 0.1 0.1 0.0 0.0 0.9 3.4 1.8 3.3 1.4 0.1 1.9 0.0 3.7 0.5 1.5 0.2 0.5 0.0 0.0 0.0 0.0 0.0 0.0 0.0 0.0
nan nan nan nan nan nan nan nan nan nan nan nan nan nan nan nan nan nan 0.0 0.0 0.0 1.2 0.6 0.2 0.6 0.0 0.0 0.0 0.0 1.7 0.2 0.0 0.0 0.0 0.5 0.9 3.0 0.2 2.3 0.6 0.0 0.0 0.0 0.8 0.1 0.0 0.0 0.0 0.0 0.0 0.0 0.0 0.0 0.0
nan nan nan nan nan nan nan nan nan nan nan nan nan nan nan nan nan nan 0.0 0.0 0.0 0.4 5.7 2.3 0.0 0.0 0.0 0.0 0.0 0.0 0.0 0.0 0.0 0.2 1.3 2.1 2.4 0.1 0.3 0.0 0.0 0.1 0.0 0.0 0.0 0.0 0.0 0.0 0.0 0.0 0.0 0.0 0.0 0.0
nan nan nan nan nan nan nan nan nan nan nan nan nan nan nan nan nan nan 0.0 0.0 0.0 0.3 3.1 1.2 0.0 0.0 0.0 0.0 0.0 0.0 0.0 0.0 0.3 1.7 4.1 4.2 0.1 0.4 0.2 0.1 0.3 0.0 0.0 0.3 0.3 0.0 0.0 0.0 0.0 0.0 0.0 0.0 0.0 0.0
nan nan nan nan nan nan nan nan nan nan nan nan nan nan nan nan nan 0.0 0.7 0.0 0.0 0.0 1.4 4.0 0.0 0.0 0.0 0.0 0.0 0.0 0.0 0.0 0.2 1.3 3.4 1.2 0.0 0.4 2.9 1.2 0.0 0.0 0.0 0.0 0.0 0.0 0.0 0.0 0.0 0.0 0.0 0.0 0.0 0.0
nan nan nan nan nan nan nan nan nan nan nan nan nan nan nan nan 0.0 0.1 0.3 0.0 nan 0.0 1.2 6.6 2.3 0.2 0.0 0.0 0.1 0.3 0.0 0.6 0.7 1.8 3.4 0.5 0.0 0.5 1.3 0.6 0.0 0.0 0.0 0.0 0.0 0.0 0.0 0.0 0.0 0.0 0.0 0.0 0.0 0.0
nan nan nan nan nan nan nan nan nan nan nan nan nan nan nan nan nan 0.1 0.0 nan nan 0.0 0.1 9.3 3.6 1.9 0.0 2.1 3.4 0.8 3.3 3.3 3.6 3.0 2.1 1.9 1.0 2.0 2.5 0.0 0.0 0.0 0.0 0.0 0.0 0.0 0.0 0.0 0.0 0.0 0.0 0.0 0.0 0.0
nan nan nan nan nan nan nan nan nan nan nan nan nan nan 0.0 0.0 1.7 0.4 nan nan 0.0 0.2 3.3 2.3 1.3 6.3 0.1 1.0 0.8 1.5 1.2 5.2 1.7 2.6 1.2 0.8 2.3 4.1 0.0 0.0 0.0 0.0 0.0 0.0 0.0 0.0 0.0 0.0 0.0 0.0 0.0 0.0 0.0 0.0
nan nan nan nan nan nan nan nan nan nan nan nan 0.0 0.3 10.7 0.5 nan nan 0.0 1.7 1.7 2.5 0.8 0.7 0.2 1.6 0.5 0.5 1.1 1.0 1.1 2.5 4.1 1.4 0.8 3.3 0.6 0.0 0.0 0.0 0.0 0.0 0.0 0.0 0.1 0.0 0.0 0.0 0.0 0.0 0.0 0.0 0.0 0.0
nan nan nan nan nan nan nan nan nan nan nan 0.2 2.9 1.2 0.0 nan 0.0 0.8 5.9 7.4 2.6 2.3 0.4 0.6 0.1 0.7 0.0 1.9 1.9 0.3 3.7 1.6 6.5 0.7 2.2 1.5 1.3 0.4 0.0 0.0 0.0 0.0 0.0 0.0 0.0 0.0 0.0 0.0 0.1 0.0 0.0 0.0 0.0 0.0
nan nan nan nan nan nan nan nan nan 0.0 0.0 0.0 0.1 0.0 0.0 0.2 1.1 2.4 4.5 1.5 0.6 0.4 0.7 1.1 1.5 1.0 1.6 0.3 2.5 3.6 2.1 3.0 0.5 0.2 5.3 1.1 1.7 0.0 0.0 0.0 0.0 0.0 0.0 0.0 0.0 0.0 0.0 0.0 0.0 0.1 0.1 0.1 0.0 0.0
nan nan nan nan nan nan nan nan nan nan nan 0.0 0.1 1.0 1.2 4.4 33.1 3.7 4.6 1.2 4.3 0.8 0.7 1.5 9.9 2.1 2.7 1.1 2.9 1.8 5.9 4.4 0.0 5.0 0.7 2.8 0.1 0.0 0.0 0.0 0.0 0.0 0.0 0.0 0.0 0.0 0.0 0.0 0.0 0.1 0.0 0.0 0.0 0.2
nan nan nan nan nan nan nan nan nan 0.0 0.0 0.3 2.7 37.3 4.3 4.7 0.4 0.2 0.1 0.7 0.8 0.6 0.5 0.4 5.3 5.0 1.6 4.9 0.9 5.6 0.7 0.4 5.9 4.5 3.8 0.4 0.0 0.0 0.0 0.0 0.0 0.0 0.0 0.2 0.0 0.0 0.0 0.1 0.1 0.3 2.0 2.1 2.1 1.0
nan nan nan nan nan nan nan nan nan 0.0 0.0 1.6 0.6 23.7 3.2 0.3 0.3 0.3 0.2 0.2 0.1 0.0 0.1 1.8 2.1 2.4 4.0 7.7 1.4 0.4 5.7 5.4 3.0 5.9 1.4 0.3 0.0 0.0 0.0 0.0 0.0 0.0 0.4 0.1 0.1 0.9 2.5 2.0 0.9 0.8 1.1 0.8 0.3 4.0
nan nan 0.0 nan nan nan nan nan 0.0 0.0 0.2 0.3 0.1 0.6 0.4 2.3 5.1 2.6 0.8 1.1 0.1 0.3 0.1 0.7 1.7 5.2 5.0 3.2 2.4 2.1 2.2 4.2 4.0 1.4 0.5 0.2 0.0 0.0 0.0 0.0 0.0 0.0 0.2 1.1 1.3 0.9 2.3 4.2 3.1 1.3 1.9 2.8 5.8 4.7
nan 0.0 nan nan nan nan nan 0.1 0.0 0.0 0.5 0.0 3.0 0.4 0.4 0.9 2.5 1.3 0.4 0.6 0.0 0.4 3.6 0.6 3.8 0.3 0.5 1.6 0.2 0.7 3.6 1.7 0.5 0.3 0.2 0.0 0.0 0.0 0.0 0.0 1.3 0.4 0.1 0.3 0.7 0.7 1.9 1.8 2.2 1.8 2.9 1.4 1.0 1.8
0.0 0.0 nan nan nan nan 0.1 0.1 0.3 0.3 0.1 0.4 5.4 2.3 0.5 0.6 1.1 1.4 0.8 0.2 0.3 0.3 0.3 0.1 0.3 0.2 2.8 0.3 2.0 1.3 0.7 0.7 0.7 0.4 0.3 0.1 0.0 0.0 0.0 0.0 0.1 0.1 0.1 0.8 1.0 0.5 0.5 1.8 1.0 1.5 1.1 0.6 1.6 2.3
0.0 0.0 nan nan 0.0 0.0 0.5 0.4 0.0 0.9 1.1 0.7 1.1 0.6 0.5 1.4 0.7 0.3 0.3 0.2 0.2 0.2 0.6 0.5 0.2 0.7 1.0 0.5 0.8 0.5 0.6 0.4 0.8 0.9 0.8 0.3 0.1 0.2 0.6 0.1 0.1 0.1 0.5 0.2 0.1 1.0 0.8 0.2 0.6 0.8 0.8 0.9 1.3 1.8
nan nan nan nan nan 0.1 0.1 0.5 0.0 0.1 0.6 1.4 0.9 0.7 0.7 1.1 0.5 1.3 0.7 0.3 0.2 1.0 2.9 2.3 1.1 0.9 0.7 0.6 0.4 0.4 0.5 0.5 0.5 1.3 2.1 1.5 1.0 0.3 0.2 0.4 0.8 0.2 0.5 0.1 0.6 0.2 0.7 0.7 0.8 0.9 1.2 1.3 2.5 3.5
nan nan nan 0.0 0.0 0.0 0.1 0.6 0.2 0.2 0.4 1.0 1.1 0.3 2.0 0.5 0.6 1.1 0.6 0.2 2.8 2.5 1.1 0.7 0.9 1.2 0.4 0.8 0.5 0.4 0.4 0.3 1.0 0.8 1.2 3.5 1.6 0.5 0.7 0.8 0.6 0.5 0.5 0.7 1.3 1.4 0.7 1.2 1.4 1.2 6.0 7.9 4.6 3.1
0.2 nan 0.3 0.0 0.5 0.2 0.8 0.0 0.1 0.3 1.0 2.0 0.5 0.2 1.6 4.7 4.0 1.6 0.2 2.4 1.3 0.9 0.7 0.7 0.8 0.7 0.8 0.5 1.3 0.3 0.3 0.1 0.1 0.4 0.1 0.2 1.5 1.0 1.1 0.8 0.6 1.1 1.0 1.4 0.9 2.0 1.4 0.9 1.2 1.9 4.8 8.2 2.9 3.3
nan 0.1 0.2 0.3 1.7 4.4 18.8 0.2 0.2 0.2 2.6 1.5 0.4 0.7 2.2 1.3 0.9 0.1 2.0 0.6 0.7 0.7 0.7 0.7 0.2 0.6 0.7 0.6 0.1 0.1 0.3 0.1 0.6 0.7 0.6 0.6 0.5 0.6 0.6 0.7 0.7 2.1 1.9 1.1 0.6 1.0 2.0 1.9 2.5 6.8 4.4 5.0 9.8 12.6
nan 1.6 5.0 2.7 4.2 18.7 0.4 3.8 0.3 0.4 0.7 1.6 1.5 2.2 0.3 0.7 0.2 1.4 2.1 0.8 0.7 0.4 0.6 0.4 0.6 1.5 0.8 0.1 0.9 1.2 1.0 0.5 0.4 0.5 0.5 0.6 0.8 1.1 0.5 0.5 0.6 0.5 0.5 0.6 0.9 1.8 2.0 6.5 5.6 4.9 9.3 16.0 20.2 18.1
16.0 22.0 7.5 38.4 2.2 8.3 5.5 3.5 1.3 1.0 4.3 2.8 2.1 3.6 5.8 0.4 4.1 2.5 0.7 1.0 0.7 0.8 1.0 1.3 0.8 0.6 0.7 0.9 0.9 1.0 0.2 0.5 0.8 0.8 1.0 0.5 0.6 0.8 1.1 0.6 0.6 0.5 0.5 4.2 6.8 10.4 10.7 10.9 11.2 11.9 7.5 19.5 7.2 9.3
37.0 10.8 25.7 2.8 7.4 3.6 1.8 6.0 6.5 7.3 3.4 4.7 3.2 1.3 1.0 4.5 4.2 5.0 0.6 1.2 1.4 1.0 6.8 4.8 2.8 1.5 1.2 0.6 1.0 0.9 1.1 0.5 0.5 0.9 1.3 0.5 0.8 1.8 4.0 4.4 3.5 2.8 0.7 2.5 7.8 15.0 11.8 12.9 15.8 8.6 15.4 8.0 8.2 18.0
33.2 14.1 0.6 0.0 0.1 0.1 5.9 3.9 0.5 2.7 5.1 6.9 2.6 4.8 4.6 14.4 8.8 1.3 1.3 1.5 1.0 1.2 0.9 0.6 0.5 0.7 0.8 1.1 1.0 1.2 0.8 0.8 0.5 1.0 0.5 0.5 0.5 0.3 1.5 7.5 5.6 2.3 1.2 4.1 7.8 15.9 18.6 18.4 19.7 14.7 18.1 17.7 18.2 20.3
2.7 0.9 11.7 2.9 5.5 0.9 6.3 4.2 4.1 5.2 1.6 0.6 3.3 7.9 9.4 7.7 4.7 1.8 1.1 0.9 1.1 0.5 0.6 0.7 0.6 0.5 0.8 1.2 1.6 2.9 3.9 4.3 4.6 2.5 1.6 1.2 1.3 2.3 2.7 2.5 3.2 7.4 4.7 10.4 13.4 16.3 13.3 19.3 22.0 21.8 21.1 22.6 24.0 19.5
4.2 0.9 1.1 12.3 5.2 3.0 5.1 5.6 4.1 0.9 0.5 1.5 10.4 5.8 2.7 1.0 3.1 1.8 1.7 1.4 1.3 1.3 2.7 4.1 7.2 6.3 4.4 3.5 5.3 4.6 5.6 6.9 6.5 9.6 10.8 12.3 12.4 9.9 6.6 6.3 6.9 10.4 9.4 10.3 7.8 9.0 10.6 15.7 18.1 20.0 15.9 23.0 20.9 23.0
4.3 0.8 3.9 6.1 11.1 6.6 8.3 4.8 5.7 3.8 0.5 1.2 0.8 0.7 1.0 2.3 4.3 1.9 2.5 2.9 4.4 12.2 15.8 12.6 14.9 14.6 24.7 18.7 19.0 13.5 10.9 12.5 9.9 14.4 18.8 14.4 10.9 10.9 12.2 16.4 16.8 15.7 14.9 26.4 20.1 11.0 9.6 16.8 14.2 24.0 21.8 21.7 21.3 23.4
1.2 4.1 6.2 3.0 8.6 10.0 7.5 9.1 10.1 4.3 5.0 10.0 10.7 11.2 7.7 4.7 6.7 4.4 4.3 7.9 9.4 24.0 24.8 29.9 29.3 25.3 23.4 17.1 26.5 25.8 19.5 23.6 10.1 6.6 5.7 10.3 12.3 16.5 19.0 17.8 18.5 20.1 21.5 22.4 27.9 23.1 22.0 24.8 23.8 22.4 17.3 15.3 16.4 17.4
6.6 12.0 16.9 11.4 13.5 16.0 7.4 19.0 15.6 14.5 17.9 16.5 19.4 15.0 18.0 16.7 12.3 13.0 16.7 21.1 20.4 24.0 8.6 18.0 30.1 17.6 12.6 10.6 16.8 13.3 9.0 10.3 11.1 10.9 9.5 13.9 16.2 19.6 12.8 11.6 25.1 25.0 21.8 22.0 21.7 22.8 18.3 24.1 23.4 24.1 21.8 18.8 17.4 15.6
21.5 14.9 10.6 11.4 26.8 11.7 11.5 15.9 4.9 17.1 14.5 16.8 19.5 16.8 15.1 15.1 14.1 20.9 9.5 19.4 24.2 24.1 20.9 25.0 23.9 25.7 14.0 11.2 11.5 12.9 10.5 11.7 12.5 10.5 9.3 9.3 9.3 10.3 17.6 24.0 27.0 22.9 15.3 21.1 23.9 22.7 18.7 14.5 18.8 17.7 18.3 20.4 18.5 16.9
Water_Equivalent
nan nan nan nan nan nan nan nan nan nan nan nan nan nan nan nan nan 0.00 0.00 0.00 0.00 0.43 0.33 0.00 0.00 0.09 0.07 0.06 0.40 0.38 0.45 0.40 0.40 0.80 1.53 1.21 0.73 0.17 0.09 0.01 0.01 0.53 1.10 1.82 1.37 1.61 1.22 0.00 0.00 0.00 0.03 0.00 0.00 0.00
nan nan nan nan nan nan nan nan nan nan nan nan nan nan nan nan nan nan 0.00 0.00 0.00 0.15 0.19 0.00 0.00 0.00 0.00 0.00 0.02 0.02 0.04 0.01 0.02 0.33 0.81 0.45 0.73 0.32 0.02 0.34 0.00 0.79 0.11 0.36 0.05 0.12 0.00 0.00 0.00 0.00 0.00 0.00 0.00 0.00
nan nan nan nan nan nan nan nan nan nan nan nan nan nan nan nan nan nan 0.00 0.00 0.01 0.42 0.17 0.06 0.15 0.00 0.00 0.00 0.00 0.50 0.06 0.00 0.01 0.00 0.15 0.28 0.54 0.06 0.53 0.14 0.01 0.00 0.00 0.28 0.03 0.00 0.00 0.00 0.00 0.00 0.00 0.00 0.00 0.00
nan nan nan nan nan nan nan nan nan nan nan nan nan nan nan nan nan nan 0.00 0.00 0.00 0.13 1.32 0.48 0.00 0.00 0.00 0.00 0.00 0.00 0.00 0.00 0.00 0.06 0.41 0.52 0.61 0.02 0.06 0.01 0.00 0.04 0.00 0.00 0.00 0.00 0.00 0.00 0.00 0.00 0.00 0.00 0.00 0.00
nan nan nan nan nan nan nan nan nan nan nan nan nan nan nan nan nan nan 0.00 0.00 0.00 0.08 0.65 0.30 0.00 0.00 0.00 0.00 0.00 0.00 0.00 0.00 0.09 0.46 1.06 0.97 0.03 0.10 0.08 0.02 0.10 0.00 0.00 0.11 0.11 0.00 0.00 0.00 0.00 0.00 0.00 0.00 0.00 0.00
nan nan nan nan nan nan nan nan nan nan nan nan nan nan nan nan nan 0.00 0.28 0.00 0.00 0.00 0.36 0.73 0.01 0.00 0.00 0.00 0.00 0.00 0.00 0.00 0.08 0.38 0.88 0.32 0.00 0.10 0.70 0.23 0.00 0.00 0.00 0.00 0.00 0.00 0.00 0.00 0.00 0.00 0.00 0.00 0.00 0.00
nan nan nan nan nan nan nan nan nan nan nan nan nan nan nan nan 0.00 0.02 0.11 0.00 nan 0.00 0.36 1.50 0.41 0.06 0.00 0.00 0.03 0.09 0.02 0.18 0.21 0.50 0.76 0.09 0.01 0.16 0.33 0.18 0.00 0.00 0.00 0.00 0.00 0.00 0.01 0.00 0.00 0.00 0.00 0.00 0.00 0.00
nan nan nan nan nan nan nan nan nan nan nan nan nan nan nan nan nan 0.05 0.00 nan nan 0.00 0.04 2.38 0.63 0.48 0.00 0.48 0.68 0.18 0.71 0.71 0.74 0.60 0.42 0.35 0.27 0.42 0.45 0.00 0.00 0.00 0.00 0.00 0.00 0.00 0.00 0.00 0.00 0.00 0.00 0.00 0.00 0.00
nan nan nan nan nan nan nan nan nan nan nan nan nan nan 0.00 0.00 0.38 0.10 nan nan 0.00 0.06 0.72 0.72 0.36 1.42 0.03 0.24 0.19 0.31 0.26 0.95 0.30 0.47 0.23 0.16 0.39 0.69 0.00 0.00 0.00 0.00 0.00 0.00 0.00 0.00 0.00 0.00 0.00 0.00 0.00 0.00 0.00 0.00
nan nan nan nan nan nan nan nan nan nan nan nan 0.00 0.10 3.10 0.12 nan nan 0.01 0.47 0.46 0.50 0.18 0.18 0.06 0.36 0.14 0.17 0.27 0.23 0.23 0.47 0.85 0.26 0.15 0.59 0.12 0.00 0.00 0.00 0.00 0.00 0.00 0.00 0.03 0.01 0.00 0.00 0.00 0.00 0.00 0.00 0.00 0.00
nan nan nan nan nan nan nan nan nan nan nan 0.06 0.67 0.30 0.00 nan 0.00 0.18 1.46 1.83 0.52 0.50 0.07 0.09 0.02 0.14 0.01 0.47 0.49 0.09 1.11 0.36 1.33 0.15 0.43 0.29 0.25 0.10 0.00 0.00 0.00 0.00 0.00 0.00 0.00 0.00 0.00 0.01 0.02 0.01 0.00 0.00 0.00 0.00
nan nan nan nan nan nan nan nan nan 0.00 0.00 0.00 0.01 0.00 0.00 0.05 0.32 0.72 1.57 0.46 0.14 0.07 0.13 0.20 0.29 0.24 0.35 0.09 0.53 0.85 0.47 0.84 0.10 0.06 1.19 0.26 0.37 0.00 0.00 0.00 0.00 0.00 0.00 0.00 0.00 0.00 0.00 0.00 0.01 0.02 0.02 0.01 0.00 0.00
nan nan nan nan nan nan nan nan nan nan nan 0.00 0.03 0.17 0.27 1.47 5.69 1.29 1.26 0.40 1.23 0.19 0.16 0.34 2.19 0.56 0.66 0.31 0.72 0.48 1.63 1.26 0.00 1.32 0.14 0.57 0.02 0.00 0.00 0.00 0.00 0.00 0.00 0.00 0.00 0.00 0.00 0.00 0.00 0.01 0.01 0.00 0.01 0.04
nan nan nan nan nan nan nan nan nan 0.00 0.00 0.12 1.07 6.73 1.60 1.82 0.13 0.09 0.05 0.16 0.20 0.17 0.11 0.12 1.23 1.12 0.39 1.13 0.26 1.67 0.18 0.12 1.58 0.88 0.69 0.10 0.00 0.00 0.00 0.00 0.00 0.00 0.00 0.06 0.00 0.00 0.01 0.02 0.02 0.07 0.53 0.53 0.47 0.19
nan nan nan nan nan nan nan nan nan 0.00 0.00 0.54 0.18 2.94 1.07 0.12 0.13 0.14 0.09 0.06 0.02 0.00 0.02 0.42 0.48 0.57 1.00 2.22 0.32 0.12 1.53 1.46 0.66 1.08 0.33 0.10 0.00 0.00 0.00 0.00 0.00 0.00 0.10 0.03 0.02 0.26 0.59 0.46 0.20 0.16 0.24 0.17 0.06 0.80
nan nan 0.00 nan nan nan nan nan 0.00 0.00 0.08 0.11 0.03 0.24 0.14 0.84 1.99 1.04 0.31 0.33 0.02 0.06 0.03 0.14 0.38 1.51 1.31 0.77 0.50 0.53 0.41 0.73 0.86 0.34 0.13 0.05 0.00 0.00 0.00 0.00 0.00 0.01 0.04 0.28 0.33 0.22 0.54 0.82 0.66 0.29 0.42 0.56 1.24 1.03
nan 0.00 nan nan nan nan nan 0.03 0.02 0.00 0.19 0.00 1.10 0.15 0.17 0.36 0.90 0.48 0.15 0.15 0.00 0.12 1.29 0.18 1.09 0.06 0.15 0.42 0.04 0.18 0.93 0.43 0.15 0.10 0.09 0.00 0.00 0.00 0.00 0.01 0.33 0.10 0.04 0.07 0.17 0.15 0.39 0.36 0.44 0.35 0.44 0.27 0.21 0.32
0.00 0.00 nan nan nan nan 0.05 0.03 0.11 0.12 0.03 0.16 1.56 0.72 0.18 0.20 0.38 0.40 0.23 0.09 0.09 0.11 0.10 0.03 0.08 0.07 0.99 0.09 0.58 0.35 0.22 0.22 0.20 0.15 0.11 0.04 0.00 0.00 0.00 0.01 0.03 0.03 0.02 0.18 0.20 0.11 0.09 0.32 0.17 0.34 0.20 0.12 0.28 0.39
0.00 0.00 nan nan 0.00 0.01 0.17 0.11 0.02 0.25 0.32 0.21 0.29 0.18 0.17 0.41 0.22 0.13 0.14 0.10 0.07 0.06 0.17 0.16 0.06 0.20 0.32 0.15 0.23 0.16 0.18 0.14 0.21 0.27 0.24 0.09 0.04 0.06 0.16 0.02 0.02 0.03 0.11 0.05 0.03 0.24 0.19 0.04 0.14 0.20 0.18 0.21 0.28 0.38
nan nan nan nan nan 0.02 0.02 0.17 0.02 0.04 0.20 0.33 0.22 0.21 0.21 0.30 0.19 0.51 0.28 0.12 0.09 0.29 0.77 0.61 0.31 0.26 0.20 0.18 0.14 0.14 0.15 0.16 0.14 0.33 0.50 0.40 0.30 0.08 0.05 0.09 0.21 0.05 0.12 0.03 0.15 0.06 0.17 0.17 0.18 0.21 0.26 0.29 0.52 0.69
nan nan nan 0.00 0.01 0.00 0.05 0.19 0.05 0.08 0.12 0.23 0.24 0.11 0.51 0.14 0.21 0.40 0.23 0.06 0.91 0.67 0.30 0.19 0.26 0.36 0.14 0.29 0.17 0.12 0.13 0.09 0.26 0.18 0.26 0.71 0.42 0.16 0.18 0.23 0.16 0.15 0.14 0.17 0.34 0.32 0.18 0.28 0.30 0.27 1.82 2.29 1.27 0.85
0.06 nan 0.10 0.01 0.14 0.07 0.30 0.02 0.06 0.10 0.27 0.40 0.18 0.09 0.51 1.65 1.42 0.52 0.07 0.79 0.36 0.23 0.19 0.19 0.22 0.23 0.24 0.13 0.34 0.06 0.07 0.03 0.03 0.12 0.04 0.07 0.34 0.25 0.26 0.21 0.14 0.27 0.25 0.36 0.22 0.52 0.33 0.20 0.32 0.55 1.32 2.23 0.75 0.88
nan 0.02 0.08 0.09 0.45 1.02 2.23 0.08 0.06 0.06 0.68 0.44 0.15 0.23 0.73 0.43 0.31 0.03 0.62 0.16 0.19 0.21 0.23 0.20 0.07 0.15 0.18 0.14 0.02 0.03 0.07 0.02 0.16 0.18 0.18 0.16 0.15 0.17 0.16 0.19 0.18 0.55 0.44 0.24 0.15 0.27 0.53 0.59 0.68 1.93 1.24 1.31 2.76 3.20
nan 0.46 1.54 0.90 0.64 2.90 0.16 1.27 0.11 0.15 0.20 0.52 0.48 0.60 0.08 0.21 0.08 0.42 0.55 0.22 0.19 0.13 0.17 0.11 0.18 0.38 0.19 0.02 0.22 0.28 0.27 0.15 0.12 0.14 0.16 0.15 0.18 0.25 0.14 0.14 0.16 0.15 0.14 0.14 0.24 0.51 0.54 1.82 1.78 1.25 2.35 4.42 5.47 4.52
3.50 4.64 2.40 4.19 0.78 2.32 1.68 1.15 0.40 0.30 1.07 0.89 0.54 0.99 1.68 0.13 1.07 0.69 0.16 0.23 0.18 0.21 0.27 0.35 0.22 0.17 0.18 0.23 0.22 0.24 0.05 0.15 0.19 0.18 0.24 0.15 0.16 0.21 0.24 0.14 0.16 0.14 0.15 1.21 1.79 2.79 2.73 2.66 2.78 2.84 1.68 5.00 1.58 2.06
6.20 3.70 3.11 0.95 2.16 1.12 0.53 1.36 1.47 1.83 0.88 1.12 0.91 0.39 0.39 1.26 0.94 0.98 0.16 0.31 0.39 0.23 1.91 1.31 0.68 0.34 0.26 0.17 0.22 0.20 0.25 0.15 0.13 0.20 0.27 0.13 0.20 0.44 0.90 0.87 0.70 0.59 0.22 0.83 2.04 3.81 2.86 3.11 3.55 1.78 3.25 1.80 2.41 4.18
4.68 3.60 0.20 0.02 0.05 0.04 1.55 1.26 0.18 0.80 1.14 1.46 0.71 1.23 1.27 2.34 1.74 0.27 0.27 0.33 0.22 0.30 0.21 0.17 0.14 0.16 0.19 0.24 0.23 0.28 0.21 0.21 0.14 0.23 0.14 0.13 0.13 0.11 0.44 1.64 1.02 0.51 0.34 1.08 2.03 4.38 4.48 4.24 4.44 2.94 3.51 3.81 4.15 4.45
0.71 0.29 1.61 0.95 1.63 0.25 1.42 0.93 1.01 1.20 0.45 0.18 0.78 1.50 1.87 1.60 0.81 0.35 0.24 0.22 0.28 0.14 0.15 0.17 0.17 0.14 0.20 0.26 0.36 0.59 0.81 0.87 0.91 0.60 0.42 0.32 0.32 0.58 0.70 0.70 0.82 2.45 1.18 2.70 3.53 3.92 3.07 4.69 5.04 4.94 4.31 4.30 4.59 4.16
1.04 0.32 0.38 1.55 0.96 0.79 1.16 1.30 0.94 0.25 0.13 0.42 2.46 1.14 0.61 0.21 0.67 0.41 0.37 0.35 0.37 0.36 0.60 0.91 1.41 1.62 0.95 0.77 1.16 0.94 1.17 1.43 1.34 1.55 2.01 2.02 2.12 1.75 1.38 1.40 1.48 2.09 1.96 2.17 2.57 2.56 2.55 3.29 3.87 4.31 4.19 4.88 4.50 4.95
0.91 0.30 1.10 1.29 1.33 1.05 2.02 1.28 1.57 1.11 0.14 0.35 0.22 0.17 0.20 0.44 0.77 0.41 0.56 0.65 0.98 2.88 4.41 3.40 3.37 3.26 4.88 3.44 2.95 2.23 2.28 2.89 2.28 3.18 3.60 2.57 2.03 1.99 2.42 3.15 3.17 3.06 3.03 5.68 3.35 1.65 2.74 3.42 3.75 4.94 4.23 3.81 4.05 4.27
0.39 1.35 1.77 0.83 1.70 2.71 2.10 2.74 2.91 1.23 1.44 2.74 2.88 2.94 1.71 0.93 1.29 0.80 0.80 1.42 1.96 6.02 6.02 6.47 6.28 6.40 5.03 3.10 5.11 4.75 3.00 4.66 1.85 1.25 1.17 2.03 2.46 3.42 3.72 3.27 3.45 3.92 4.20 3.94 4.84 3.43 3.14 3.92 4.14 4.11 2.92 2.58 2.56 2.66
1.86 3.29 2.74 1.65 2.55 4.16 2.16 5.27 4.02 3.52 4.58 4.04 4.74 3.89 4.44 3.81 2.25 1.93 2.21 3.31 4.03 4.85 2.71 3.79 5.91 2.73 2.34 2.05 3.68 2.73 2.88 1.69 1.78 1.78 1.92 2.53 3.14 3.66 2.30 1.96 4.57 4.68 3.82 3.60 3.47 3.55 2.90 3.65 3.45 3.77 3.23 2.85 2.56 2.27
5.35 3.62 2.30 2.22 5.04 2.59 2.80 3.91 1.07 3.64 3.03 3.57 4.13 3.64 3.66 3.16 2.05 2.69 1.25 2.88 3.68 3.90 3.23 4.45 4.60 5.41 2.68 2.29 2.06 2.30 2.71 1.89 2.56 3.46 3.06 3.07 3.05 2.96 2.85 4.16 4.93 3.80 2.39 3.26 3.67 3.29 2.94 2.22 2.35 2.56 2.57 2.92 2.59 2.35
SL_Ratio
nan nan nan nan nan nan nan nan nan nan nan nan nan nan nan nan nan nan nan nan 3.3 3.5 3.4 2.9 nan 3.6 3.7 2.6 4.3 3.7 5.0 4.2 3.4 3.7 4.0 5.3 5.4 5.2 5.1 5.2 3.6 4.5 5.0 4.9 5.4 5.5 6.2 nan nan 5.0 3.0 nan nan nan
nan nan nan nan nan nan nan nan nan nan nan nan nan nan nan nan nan nan nan nan nan 3.1 4.0 3.1 nan nan nan nan 3.0 3.8 3.5 3.8 2.8 2.6 4.1 4.0 4.5 4.3 5.1 5.6 nan 4.7 4.3 4.1 4.2 4.1 nan nan nan nan nan nan nan nan
nan nan nan nan nan nan nan nan nan nan nan nan nan nan nan nan nan nan nan nan 2.6 2.9 3.5 3.8 3.7 nan nan nan nan 3.4 3.8 nan 3.0 nan 3.1 3.4 5.5 3.2 4.3 4.4 3.5 nan nan 2.7 3.8 nan nan nan nan nan nan nan nan nan
nan nan nan nan nan nan nan nan nan nan nan nan nan nan nan nan nan nan nan nan nan 2.8 4.3 4.8 nan nan nan nan nan nan nan nan nan 2.5 3.3 4.0 3.9 3.2 4.6 3.4 3.2 2.7 2.3 2.5 nan nan nan nan nan nan nan nan nan nan
nan nan nan nan nan nan nan nan nan nan nan nan nan nan nan nan nan nan nan nan nan 3.2 4.8 4.0 nan nan nan nan nan nan nan nan 3.1 3.6 3.9 4.3 3.3 4.1 3.0 3.2 3.0 nan 0.0 3.1 2.9 nan nan nan nan nan nan nan nan nan
nan nan nan nan nan nan nan nan nan nan nan nan nan nan nan nan nan nan 2.5 nan nan nan 3.9 5.5 4.0 nan nan nan nan nan nan nan 2.9 3.5 3.9 3.9 nan 3.7 4.2 5.0 nan nan nan nan nan nan nan nan nan nan nan nan nan nan
nan nan nan nan nan nan nan nan nan nan nan nan nan nan nan nan nan 2.5 3.0 nan nan nan 3.4 4.4 5.7 2.9 nan nan 3.3 3.3 2.8 3.0 3.3 3.5 4.4 5.2 4.8 3.5 3.9 3.2 nan nan nan nan nan 0.0 3.9 nan nan nan nan nan nan nan
nan nan nan nan nan nan nan nan nan nan nan nan nan nan nan nan nan 2.7 nan nan nan nan 3.1 3.9 5.7 3.9 nan 4.3 4.9 4.5 4.7 4.6 4.9 5.0 5.1 5.2 3.9 4.9 5.6 nan nan nan nan nan nan nan nan nan nan nan nan nan nan nan
nan nan nan nan nan nan nan nan nan nan nan nan nan nan nan nan 4.3 3.8 nan nan nan 3.9 4.6 3.2 3.6 4.4 2.8 4.4 4.3 4.9 4.8 5.4 5.6 5.4 5.4 4.8 6.0 6.0 5.8 nan nan nan 3.1 5.0 nan nan nan nan nan nan nan nan nan nan
nan nan nan nan nan nan nan nan nan nan nan nan nan 3.0 3.5 3.9 nan nan 4.4 3.7 3.6 5.0 4.5 3.9 3.6 4.4 3.6 3.2 4.1 4.3 4.6 5.3 4.9 5.4 5.6 5.6 5.4 nan nan nan nan nan nan nan 3.7 4.0 nan 0.0 nan nan nan nan nan nan
nan nan nan nan nan nan nan nan nan nan nan 3.7 4.3 4.1 nan nan 5.7 4.3 4.0 4.1 5.1 4.6 5.5 6.0 4.4 4.9 4.7 3.9 3.9 3.4 3.3 4.3 4.9 4.7 5.3 5.4 5.1 4.3 nan nan nan nan nan nan nan nan nan 3.2 3.7 3.6 3.8 nan nan nan
nan nan nan nan nan nan nan nan nan nan nan 5.7 5.7 nan 7.5 4.5 3.4 3.4 2.8 3.2 4.5 5.8 5.3 5.4 5.1 4.3 4.7 3.2 4.6 4.2 4.4 3.6 5.5 3.8 4.5 4.3 4.5 nan nan nan nan nan nan nan nan nan nan 0.0 3.5 3.5 3.8 3.8 3.6 5.0
nan nan nan nan nan nan nan nan nan nan nan nan 3.3 5.8 4.4 3.0 5.8 2.9 3.7 3.0 3.5 4.3 4.0 4.5 4.5 3.8 4.1 3.6 4.0 3.8 3.6 3.5 3.2 3.7 4.8 4.9 3.9 nan nan nan nan nan nan nan nan nan nan 3.8 3.3 3.8 4.3 nan 3.6 4.3
nan nan nan nan nan nan nan nan nan nan nan 2.6 2.5 5.5 2.7 2.6 2.7 2.6 2.9 4.1 4.0 3.5 4.3 3.7 4.3 4.4 4.0 4.3 3.6 3.3 4.2 3.6 3.7 5.1 5.5 4.1 3.8 nan nan nan nan nan nan 3.1 3.1 nan 3.5 4.1 3.9 3.7 3.8 4.0 4.5 5.2
nan nan nan nan nan nan nan nan nan nan nan 2.9 3.1 8.1 3.0 2.5 2.5 2.5 2.5 2.7 2.8 nan 4.4 4.3 4.3 4.1 4.0 3.5 4.3 3.3 3.7 3.7 4.5 5.4 4.3 3.5 nan nan nan nan nan nan 3.5 3.7 3.6 3.7 4.1 4.4 4.4 4.7 4.5 4.5 4.7 5.0
nan nan nan nan nan nan nan nan nan nan 2.5 2.7 2.6 2.5 2.7 2.8 2.6 2.5 2.6 3.3 4.7 4.6 4.5 4.8 4.4 3.5 3.8 4.1 4.7 3.9 5.4 5.8 4.7 4.2 3.6 3.1 nan nan nan nan nan 3.3 3.8 3.9 4.1 4.1 4.2 5.1 4.8 4.5 4.6 5.0 4.7 4.5
nan 2.5 nan nan nan nan nan 2.5 2.5 nan 2.5 2.7 2.8 2.6 2.6 2.5 2.7 2.6 2.6 3.7 4.5 3.3 2.8 3.6 3.5 4.2 3.5 3.7 3.9 3.9 3.9 4.0 3.6 3.2 2.9 3.0 nan nan nan 3.2 4.0 4.0 3.8 4.1 4.4 4.7 4.9 5.0 5.1 5.3 6.6 5.3 5.0 5.6
5.0 nan nan nan nan nan 2.5 2.5 2.8 2.8 3.4 2.8 3.4 3.2 2.9 2.8 2.8 3.4 3.6 2.9 2.7 3.0 3.1 3.6 3.1 3.1 2.9 3.2 3.4 3.7 3.4 3.4 3.5 3.0 2.9 2.8 5.0 2.7 nan 3.2 3.4 3.8 3.8 4.4 4.8 4.8 5.1 5.6 5.7 4.5 5.4 5.1 5.8 5.9
nan nan nan nan nan 2.5 2.8 3.2 2.6 3.5 3.5 3.5 3.8 3.3 2.9 3.4 3.4 2.5 2.5 2.5 2.5 2.5 3.5 3.2 3.1 3.4 3.3 3.4 3.4 3.2 3.4 3.1 3.6 3.3 3.2 3.3 3.6 3.6 3.8 3.5 3.7 4.1 4.8 4.6 4.6 4.1 4.1 4.8 4.1 4.1 4.2 4.2 4.6 4.7
nan nan nan nan nan 2.5 4.5 2.7 2.6 2.9 3.1 4.1 4.2 3.4 3.5 3.7 2.9 2.5 2.5 2.6 2.5 3.3 3.7 3.8 3.5 3.5 3.6 3.3 3.1 3.1 3.1 3.1 3.2 3.9 4.2 3.9 3.3 4.2 4.4 4.3 3.8 3.9 3.8 4.3 3.9 4.0 4.1 4.1 4.3 4.4 4.4 4.5 4.8 5.1
nan nan nan nan 2.6 nan 2.5 2.9 3.3 2.7 3.2 4.4 4.5 3.0 3.8 3.9 2.9 2.9 2.8 2.6 3.1 3.7 3.7 3.6 3.7 3.4 3.0 2.9 2.8 3.0 3.3 3.8 4.0 4.3 4.4 4.9 3.8 3.4 3.6 3.5 3.5 3.5 3.9 4.3 3.8 4.2 3.9 4.3 4.7 4.5 3.3 3.4 3.6 3.6
2.5 nan 2.6 2.6 3.4 3.2 2.5 2.5 2.5 2.6 3.6 5.0 2.9 2.6 3.1 2.8 2.8 3.0 2.7 3.1 3.6 3.8 3.5 3.5 3.5 3.2 3.5 3.6 3.8 4.7 4.5 4.5 4.8 3.4 3.3 3.5 4.3 4.0 4.3 4.1 4.0 4.2 4.2 3.9 4.0 3.8 4.2 4.4 3.7 3.5 3.6 3.7 3.9 3.8
nan 2.5 3.0 3.8 3.8 4.3 8.4 2.5 3.4 2.6 3.9 3.5 2.7 3.0 3.0 3.1 3.1 2.6 3.2 3.6 3.8 3.5 3.2 3.3 3.3 3.6 4.1 4.0 4.2 4.4 4.2 4.5 3.6 3.6 3.6 3.7 3.8 3.7 3.8 4.0 4.0 3.8 4.2 4.3 4.1 3.6 3.8 3.2 3.6 3.5 3.5 3.8 3.6 3.9
nan 3.5 3.3 3.0 6.6 6.5 2.5 3.0 3.1 2.9 3.5 3.1 3.2 3.6 3.3 3.1 2.8 3.4 3.8 3.7 3.6 3.4 3.5 4.1 3.5 3.9 3.9 4.5 4.1 4.2 3.7 3.2 3.6 3.7 3.4 3.7 4.2 4.4 3.9 3.9 3.6 3.7 3.7 3.9 3.6 3.5 3.7 3.6 3.2 3.9 4.0 3.6 3.7 4.0
4.6 4.7 3.1 9.2 2.8 3.6 3.3 3.0 3.3 3.2 4.1 3.2 4.0 3.7 3.5 2.8 3.8 3.6 4.2 4.3 3.7 3.8 3.8 3.8 3.7 3.6 4.0 4.1 4.1 4.3 4.2 3.4 4.1 4.4 4.0 3.6 3.6 4.0 4.4 4.0 3.8 3.8 3.2 3.4 3.8 3.7 3.9 4.1 4.0 4.2 4.5 3.9 4.6 4.5
6.0 2.9 8.3 2.9 3.4 3.2 3.4 4.4 4.4 4.0 3.9 4.2 3.5 3.3 2.7 3.6 4.5 5.1 3.9 3.9 3.6 4.2 3.5 3.7 4.1 4.4 4.6 3.8 4.5 4.7 4.3 3.5 3.6 4.3 4.8 3.8 3.8 4.0 4.4 5.0 5.0 4.7 3.4 3.0 3.8 3.9 4.1 4.1 4.5 4.8 4.7 4.4 3.4 4.3
7.1 3.9 3.3 2.5 2.7 2.7 3.8 3.1 2.9 3.4 4.5 4.8 3.7 3.9 3.7 6.2 5.0 4.8 4.9 4.7 4.4 4.1 4.0 3.7 3.6 4.0 4.2 4.5 4.3 4.3 3.9 3.8 3.9 4.5 3.7 3.6 3.5 3.2 3.4 4.6 5.5 4.6 3.5 3.8 3.8 3.6 4.2 4.3 4.4 5.0 5.2 4.7 4.4 4.6
3.8 3.1 7.3 3.1 3.4 3.4 4.4 4.5 4.1 4.3 3.6 3.4 4.2 5.3 5.0 4.8 5.8 5.1 4.4 4.2 3.7 3.7 3.9 3.9 3.8 3.9 4.1 4.5 4.5 5.0 4.8 4.9 5.0 4.1 3.9 3.8 4.1 3.9 3.9 3.5 3.9 3.0 4.0 3.9 3.8 4.2 4.3 4.1 4.4 4.4 4.9 5.3 5.2 4.7
4.0 2.9 3.0 7.9 5.5 3.8 4.3 4.3 4.4 3.6 3.7 3.5 4.2 5.1 4.5 4.9 4.6 4.5 4.6 4.1 3.6 3.7 4.4 4.5 5.1 3.9 4.7 4.6 4.6 4.9 4.8 4.8 4.9 6.2 5.4 6.1 5.8 5.7 4.8 4.5 4.7 5.0 4.8 4.8 3.0 3.5 4.2 4.8 4.7 4.6 3.8 4.7 4.6 4.6
4.7 2.6 3.5 4.7 8.3 6.3 4.1 3.8 3.6 3.5 3.7 3.4 3.5 4.1 5.1 5.2 5.6 4.7 4.4 4.5 4.5 4.2 3.6 3.7 4.4 4.5 5.1 5.4 6.4 6.1 4.8 4.3 4.3 4.5 5.2 5.6 5.4 5.5 5.0 5.2 5.3 5.1 4.9 4.6 6.0 6.7 3.5 4.9 3.8 4.9 5.2 5.7 5.3 5.5
3.0 3.1 3.5 3.6 5.1 3.7 3.6 3.3 3.5 3.5 3.5 3.7 3.7 3.8 4.5 5.0 5.2 5.5 5.4 5.6 4.8 4.0 4.1 4.6 4.7 4.0 4.7 5.5 5.2 5.4 6.5 5.1 5.4 5.3 4.8 5.0 5.0 4.8 5.1 5.5 5.3 5.1 5.1 5.7 5.8 6.7 7.0 6.3 5.8 5.4 5.9 5.9 6.4 6.5
3.5 3.6 6.2 6.9 5.3 3.8 3.4 3.6 3.9 4.1 3.9 4.1 4.1 3.8 4.0 4.4 5.4 6.7 7.6 6.4 5.1 4.9 3.2 4.7 5.1 6.5 5.4 5.1 4.6 4.9 3.1 6.1 6.2 6.1 4.9 5.5 5.2 5.4 5.6 5.9 5.5 5.3 5.7 6.1 6.3 6.4 6.3 6.6 6.8 6.4 6.8 6.6 6.8 6.9
4.0 4.1 4.6 5.1 5.3 4.5 4.1 4.1 4.6 4.7 4.8 4.7 4.7 4.6 4.1 4.8 6.9 7.8 7.7 6.7 6.6 6.2 6.5 5.6 5.2 4.7 5.2 4.9 5.6 5.6 3.8 6.2 4.9 3.0 3.0 3.0 3.0 3.5 6.2 5.8 5.5 6.0 6.4 6.5 6.5 6.9 6.4 6.5 8.0 6.9 7.1 7.0 7.1 7.2